Location: Buch
(49.7331°N, 12.1098°E)
Time: 14:08:11
(UTC+00:00)

Meteor 1-12 Rocket - Pass Details

Date: 12 May 2021
Orbit: 854 x 927 km, 81.2° (Epoch: 17 June)

Event Time Altitude Azimuth Distance (km) Brightness Sun altitude
Rises 23:02:27 0° 346° (NNW) 3,543 8.8 -21.9°
Reaches altitude 10° 23:04:57 10° 346° (NNW) 2,588 7.8 -21.9°
Maximum altitude 23:10:50 78° 261° (W) 911 4.2 -21.9°
Enters shadow 23:12:38 46° 184° (S) 1,173 4.5 -21.9°
